Time,TemperatureF,DewpointF,PressureIn,WindDirection,WindDirectionDegrees,WindSpeedMPH,WindSpeedGustMPH,Humidity,HourlyPrecipIn,Conditions,Clouds,dailyrainin,SoftwareType,DateUTC
2013-06-28 00:00:00,60.2,59.3,27.69,North,350,0.0,0.0,97,0.00,,---,0.09,VWS V14.01,2013-06-28 05:00:00,
2013-06-28 00:05:00,60.2,59.3,27.69,North,350,0.0,2.0,97,0.00,,---,0.00,VWS V14.01,2013-06-28 05:05:00,
2013-06-28 00:11:00,60.2,59.3,27.69,North,350,1.0,1.0,97,0.00,,---,0.00,VWS V14.01,2013-06-28 05:11:00,
2013-06-28 00:16:00,60.2,59.3,27.69,North,350,0.0,0.0,97,0.00,,---,0.00,VWS V14.01,2013-06-28 05:16:00,
2013-06-28 00:21:00,60.3,59.5,27.69,WNW,300,2.0,3.0,97,0.00,,---,0.00,VWS V14.01,2013-06-28 05:21:00,
2013-06-28 00:26:00,60.3,59.5,27.69,WNW,284,0.0,4.0,97,0.00,,---,0.00,VWS V14.01,2013-06-28 05:26:00,
2013-06-28 00:31:00,60.3,59.5,27.69,WNW,284,0.0,0.0,97,0.00,,---,0.00,VWS V14.01,2013-06-28 05:31:00,
2013-06-28 00:36:00,60.2,59.3,27.69,West,277,0.0,3.0,97,0.00,,---,0.00,VWS V14.01,2013-06-28 05:36:00,
2013-06-28 00:41:00,60.2,59.3,27.69,West,275,0.0,0.0,97,0.00,,---,0.00,VWS V14.01,2013-06-28 05:41:00,
2013-06-28 00:47:00,60.2,59.3,27.69,West,275,0.0,1.0,97,0.00,,---,0.00,VWS V14.01,2013-06-28 05:47:00,
2013-06-28 00:52:00,60.2,59.3,27.69,West,275,0.0,2.0,97,0.00,,---,0.00,VWS V14.01,2013-06-28 05:52:00,
2013-06-28 00:57:00,60.2,59.3,27.69,West,275,0.0,1.0,97,0.00,,---,0.00,VWS V14.01,2013-06-28 05:57:00,
2013-06-28 01:03:00,60.2,59.3,27.69,West,275,0.0,0.0,97,0.00,,---,0.00,VWS V14.01,2013-06-28 06:03:00,
2013-06-28 01:08:00,60.2,59.3,27.69,West,275,0.0,0.0,97,0.00,,---,0.00,VWS V14.01,2013-06-28 06:08:00,
2013-06-28 01:13:00,60.2,59.3,27.69,West,275,0.0,0.0,97,0.00,,---,0.00,VWS V14.01,2013-06-28 06:13:00,
2013-06-28 01:18:00,60.3,59.5,27.69,West,275,0.0,2.0,97,0.00,,---,0.00,VWS V14.01,2013-06-28 06:18:00,
2013-06-28 01:24:00,60.3,59.5,27.69,West,275,0.0,0.0,97,0.00,,---,0.00,VWS V14.01,2013-06-28 06:24:00,
2013-06-28 01:29:00,60.3,59.5,27.69,West,275,0.0,2.0,97,0.00,,---,0.00,VWS V14.01,2013-06-28 06:29:00,
2013-06-28 01:34:00,60.4,59.5,27.68,West,275,0.0,0.0,97,0.00,,---,0.00,VWS V14.01,2013-06-28 06:34:00,
2013-06-28 01:39:00,60.4,59.5,27.68,West,275,0.0,0.0,97,0.00,,---,0.00,VWS V14.01,2013-06-28 06:39:00,
2013-06-28 01:44:00,60.4,59.5,27.68,West,275,0.0,0.0,97,0.00,,---,0.00,VWS V14.01,2013-06-28 06:44:00,
2013-06-28 01:49:00,60.5,59.7,27.68,West,275,0.0,0.0,97,0.00,,---,0.00,VWS V14.01,2013-06-28 06:49:00,
2013-06-28 01:55:00,60.5,59.7,27.68,West,277,0.0,0.0,97,0.00,,---,0.00,VWS V14.01,2013-06-28 06:55:00,
2013-06-28 02:00:00,60.6,59.8,27.68,West,277,0.0,0.0,97,0.00,,---,0.00,VWS V14.01,2013-06-28 07:00:00,
2013-06-28 02:05:00,60.6,59.8,27.68,West,277,0.0,0.0,97,0.00,,---,0.00,VWS V14.01,2013-06-28 07:05:00,
2013-06-28 02:10:00,60.7,59.8,27.68,West,277,0.0,0.0,97,0.00,,---,0.00,VWS V14.01,2013-06-28 07:10:00,
2013-06-28 02:15:00,60.7,59.8,27.68,West,277,0.0,1.0,97,0.00,,---,0.00,VWS V14.01,2013-06-28 07:15:00,
2013-06-28 02:21:00,60.7,59.8,27.68,West,277,0.0,0.0,97,0.00,,---,0.00,VWS V14.01,2013-06-28 07:21:00,
2013-06-28 02:26:00,60.8,60.0,27.68,West,277,0.0,0.0,97,0.00,,---,0.00,VWS V14.01,2013-06-28 07:26:00,
2013-06-28 02:31:00,60.8,60.0,27.67,West,277,0.0,0.0,97,0.00,,---,0.00,VWS V14.01,2013-06-28 07:31:00,
2013-06-28 02:36:00,60.8,60.0,27.67,WNW,295,0.0,2.0,97,0.00,,---,0.00,VWS V14.01,2013-06-28 07:36:00,
2013-06-28 02:41:00,60.8,60.2,27.67,WNW,296,2.0,3.0,98,0.00,,---,0.00,VWS V14.01,2013-06-28 07:41:00,
2013-06-28 02:46:00,60.8,60.2,27.67,WNW,297,0.0,0.0,98,0.00,,---,0.00,VWS V14.01,2013-06-28 07:46:00,
2013-06-28 02:52:00,60.8,60.2,27.67,WNW,297,0.0,0.0,98,0.00,,---,0.00,VWS V14.01,2013-06-28 07:52:00,
2013-06-28 02:57:00,60.9,60.3,27.67,WNW,297,0.0,1.0,98,0.00,,---,0.00,VWS V14.01,2013-06-28 07:57:00,
2013-06-28 03:02:00,60.9,60.3,27.67,WNW,297,0.0,0.0,98,0.00,,---,0.00,VWS V14.01,2013-06-28 08:02:00,
2013-06-28 03:07:00,60.9,60.3,27.67,WNW,296,0.0,0.0,98,0.00,,---,0.00,VWS V14.01,2013-06-28 08:07:00,
2013-06-28 03:12:00,60.8,60.2,27.67,WNW,296,0.0,0.0,98,0.00,,---,0.00,VWS V14.01,2013-06-28 08:12:00,
2013-06-28 03:17:00,60.8,60.2,27.67,WNW,294,0.0,0.0,98,0.00,,---,0.00,VWS V14.01,2013-06-28 08:17:00,
2013-06-28 03:22:00,60.8,60.2,27.67,WNW,294,0.0,0.0,98,0.00,,---,0.00,VWS V14.01,2013-06-28 08:22:00,
2013-06-28 03:27:00,60.8,60.2,27.67,WNW,294,1.0,1.0,98,0.02,,---,0.02,VWS V14.01,2013-06-28 08:27:00,
2013-06-28 03:32:00,60.8,60.2,27.67,WNW,295,0.0,3.0,98,0.07,,---,0.07,VWS V14.01,2013-06-28 08:32:00,
2013-06-28 03:37:00,60.8,60.2,27.67,WNW,295,0.0,0.0,98,0.10,,---,0.10,VWS V14.01,2013-06-28 08:37:00,
2013-06-28 03:43:00,60.8,60.0,27.67,WNW,295,0.0,0.0,97,0.11,,---,0.11,VWS V14.01,2013-06-28 08:43:00,
2013-06-28 03:48:00,60.7,59.8,27.67,WNW,295,0.0,0.0,97,0.11,,---,0.11,VWS V14.01,2013-06-28 08:48:00,
2013-06-28 03:53:00,60.6,59.8,27.67,WNW,295,0.0,0.0,97,0.12,,---,0.12,VWS V14.01,2013-06-28 08:53:00,
2013-06-28 03:58:00,60.6,59.8,27.67,WNW,296,0.0,3.0,97,0.13,,---,0.13,VWS V14.01,2013-06-28 08:58:00,
2013-06-28 04:03:00,60.6,59.8,27.67,WNW,300,1.0,1.0,97,0.13,,---,0.13,VWS V14.01,2013-06-28 09:03:00,
2013-06-28 04:09:00,60.6,59.8,27.67,WNW,300,0.0,1.0,97,0.13,,---,0.13,VWS V14.01,2013-06-28 09:09:00,
2013-06-28 04:14:00,60.7,59.8,27.67,WNW,300,1.0,2.0,97,0.13,,---,0.13,VWS V14.01,2013-06-28 09:14:00,
2013-06-28 04:19:00,60.7,60.1,27.67,WNW,300,1.0,2.0,98,0.13,,---,0.13,VWS V14.01,2013-06-28 09:19:00,
2013-06-28 04:24:00,60.7,60.1,27.67,WNW,300,0.0,0.0,98,0.12,,---,0.13,VWS V14.01,2013-06-28 09:24:00,
2013-06-28 04:30:00,60.7,60.1,27.67,NW,307,1.0,3.0,98,0.09,,---,0.13,VWS V14.01,2013-06-28 09:30:00,
2013-06-28 04:35:00,60.6,60.0,27.67,NW,307,0.0,0.0,98,0.05,,---,0.13,VWS V14.01,2013-06-28 09:35:00,
2013-06-28 04:40:00,60.5,59.9,27.67,NW,307,2.0,4.0,98,0.02,,---,0.13,VWS V14.01,2013-06-28 09:40:00,
2013-06-28 04:45:00,60.5,59.9,27.67,NW,319,0.0,1.0,98,0.02,,---,0.13,VWS V14.01,2013-06-28 09:45:00,
2013-06-28 04:50:00,60.5,59.9,27.67,NW,320,1.0,3.0,98,0.02,,---,0.13,VWS V14.01,2013-06-28 09:50:00,
2013-06-28 04:55:00,60.4,59.8,27.67,NW,323,0.0,3.0,98,0.01,,---,0.13,VWS V14.01,2013-06-28 09:55:00,
2013-06-28 05:01:00,60.3,59.7,27.67,NNW,328,1.0,1.0,98,0.01,,---,0.14,VWS V14.01,2013-06-28 10:01:00,
2013-06-28 05:06:00,60.3,59.7,27.67,NNW,329,0.0,1.0,98,0.02,,---,0.15,VWS V14.01,2013-06-28 10:06:00,
2013-06-28 05:11:00,60.2,59.6,27.67,NNW,329,0.0,1.0,98,0.03,,---,0.16,VWS V14.01,2013-06-28 10:11:00,
2013-06-28 05:16:00,60.3,59.7,27.68,NNW,329,0.0,2.0,98,0.05,,---,0.18,VWS V14.01,2013-06-28 10:16:00,
2013-06-28 05:21:00,60.3,59.7,27.68,NNW,330,0.0,1.0,98,0.06,,---,0.19,VWS V14.01,2013-06-28 10:21:00,
2013-06-28 05:27:00,60.3,59.7,27.68,NNW,340,1.0,1.0,98,0.07,,---,0.20,VWS V14.01,2013-06-28 10:27:00,
2013-06-28 05:32:00,60.3,59.7,27.68,NNW,340,0.0,0.0,98,0.07,,---,0.20,VWS V14.01,2013-06-28 10:32:00,
2013-06-28 05:37:00,60.2,59.6,27.68,NNW,346,2.0,2.0,98,0.08,,---,0.21,VWS V14.01,2013-06-28 10:37:00,
2013-06-28 05:42:00,60.2,59.6,27.68,NE,49,1.0,2.0,98,0.08,,---,0.21,VWS V14.01,2013-06-28 10:42:00,
2013-06-28 05:47:00,60.2,59.6,27.68,NE,49,0.0,1.0,98,0.08,,---,0.21,VWS V14.01,2013-06-28 10:47:00,
2013-06-28 05:52:00,60.2,59.6,27.68,NE,49,0.0,0.0,98,0.08,,---,0.21,VWS V14.01,2013-06-28 10:52:00,
2013-06-28 05:57:00,60.2,59.6,27.68,North,5,0.0,4.0,98,0.07,,---,0.21,VWS V14.01,2013-06-28 10:57:00,
2013-06-28 06:02:00,60.2,59.6,27.68,North,5,0.0,0.0,98,0.07,,---,0.21,VWS V14.01,2013-06-28 11:02:00,
2013-06-28 06:07:00,60.2,59.6,27.68,North,5,0.0,2.0,98,0.06,,---,0.21,VWS V14.01,2013-06-28 11:07:00,
2013-06-28 06:13:00,60.3,59.7,27.68,NNE,17,0.0,0.0,98,0.04,,---,0.21,VWS V14.01,2013-06-28 11:13:00,
2013-06-28 06:18:00,60.3,59.7,27.69,NNE,16,0.0,0.0,98,0.03,,---,0.21,VWS V14.01,2013-06-28 11:18:00,
2013-06-28 06:23:00,60.3,59.7,27.69,NNE,16,0.0,1.0,98,0.02,,---,0.21,VWS V14.01,2013-06-28 11:23:00,
2013-06-28 06:28:00,60.3,59.7,27.69,NNE,15,0.0,0.0,98,0.01,,---,0.21,VWS V14.01,2013-06-28 11:28:00,
2013-06-28 06:33:00,60.3,59.7,27.69,NNE,21,0.0,3.0,98,0.00,,---,0.21,VWS V14.01,2013-06-28 11:33:00,
2013-06-28 06:39:00,60.4,59.8,27.69,NNE,28,0.0,0.0,98,0.00,,---,0.21,VWS V14.01,2013-06-28 11:39:00,
2013-06-28 06:44:00,60.4,59.8,27.69,NNE,27,0.0,2.0,98,0.00,,---,0.21,VWS V14.01,2013-06-28 11:44:00,
2013-06-28 06:49:00,60.4,59.8,27.69,NNE,25,0.0,3.0,98,0.00,,---,0.21,VWS V14.01,2013-06-28 11:49:00,
2013-06-28 06:54:00,60.5,59.9,27.69,NNE,24,0.0,1.0,98,0.00,,---,0.21,VWS V14.01,2013-06-28 11:54:00,
2013-06-28 07:00:00,60.6,60.0,27.69,NNE,24,3.0,3.0,98,0.00,,---,0.21,VWS V14.01,2013-06-28 12:00:00,
2013-06-28 07:05:00,60.7,60.1,27.69,NNE,24,0.0,2.0,98,0.00,,---,0.21,VWS V14.01,2013-06-28 12:05:00,
2013-06-28 07:10:00,60.7,60.1,27.69,North,5,2.0,2.0,98,0.00,,---,0.21,VWS V14.01,2013-06-28 12:10:00,
2013-06-28 07:15:00,60.7,60.1,27.69,North,5,2.0,2.0,98,0.00,,---,0.21,VWS V14.01,2013-06-28 12:15:00,
2013-06-28 07:20:00,60.8,60.2,27.69,North,5,0.0,1.0,98,0.00,,---,0.21,VWS V14.01,2013-06-28 12:20:00,
2013-06-28 07:25:00,60.9,60.3,27.69,North,5,0.0,0.0,98,0.00,,---,0.21,VWS V14.01,2013-06-28 12:25:00,
2013-06-28 07:30:00,60.9,60.3,27.69,North,5,0.0,1.0,98,0.00,,---,0.21,VWS V14.01,2013-06-28 12:30:00,
2013-06-28 07:35:00,61.0,60.4,27.70,NNE,17,6.0,6.0,98,0.00,,---,0.21,VWS V14.01,2013-06-28 12:35:00,
2013-06-28 07:41:00,61.3,60.7,27.70,North,360,0.0,0.0,98,0.00,,---,0.21,VWS V14.01,2013-06-28 12:41:00,
2013-06-28 07:46:00,61.3,60.7,27.70,North,360,0.0,0.0,98,0.00,,---,0.21,VWS V14.01,2013-06-28 12:46:00,
2013-06-28 07:51:00,61.3,60.7,27.70,NNW,340,2.0,4.0,98,0.00,,---,0.21,VWS V14.01,2013-06-28 12:51:00,
2013-06-28 07:57:00,61.1,60.5,27.70,North,355,3.0,3.0,98,0.00,,---,0.21,VWS V14.01,2013-06-28 12:57:00,
2013-06-28 08:02:00,61.2,60.3,27.71,North,360,4.0,4.0,97,0.00,,---,0.21,VWS V14.01,2013-06-28 13:02:00,
2013-06-28 08:07:00,61.3,60.4,27.71,North,360,1.0,3.0,97,0.00,,---,0.21,VWS V14.01,2013-06-28 13:07:00,
2013-06-28 08:12:00,61.5,60.6,27.71,North,5,1.0,1.0,97,0.00,,---,0.21,VWS V14.01,2013-06-28 13:12:00,
2013-06-28 08:17:00,61.8,60.9,27.71,NNE,30,3.0,3.0,97,0.00,,---,0.21,VWS V14.01,2013-06-28 13:17:00,
2013-06-28 08:23:00,61.9,61.0,27.71,North,5,1.0,5.0,97,0.00,,---,0.21,VWS V14.01,2013-06-28 13:23:00,
2013-06-28 08:28:00,62.1,61.2,27.71,North,5,0.0,1.0,97,0.00,,---,0.21,VWS V14.01,2013-06-28 13:28:00,
2013-06-28 08:33:00,62.1,61.2,27.71,NNE,17,0.0,2.0,97,0.00,,---,0.21,VWS V14.01,2013-06-28 13:33:00,
2013-06-28 08:38:00,62.2,61.0,27.71,NNE,17,0.0,0.0,96,0.00,,---,0.21,VWS V14.01,2013-06-28 13:38:00,
2013-06-28 08:43:00,62.1,61.0,27.71,NNE,18,0.0,0.0,96,0.00,,---,0.21,VWS V14.01,2013-06-28 13:43:00,
2013-06-28 08:49:00,62.0,60.8,27.71,NNE,17,1.0,2.0,96,0.00,,---,0.21,VWS V14.01,2013-06-28 13:49:00,
2013-06-28 08:54:00,61.9,60.8,27.71,NNE,17,0.0,0.0,96,0.00,,---,0.21,VWS V14.01,2013-06-28 13:54:00,
2013-06-28 08:59:00,61.9,60.8,27.71,NNE,13,3.0,4.0,96,0.00,,---,0.21,VWS V14.01,2013-06-28 13:59:00,
2013-06-28 09:04:00,61.9,60.8,27.71,NNE,14,0.0,5.0,96,0.00,,---,0.21,VWS V14.01,2013-06-28 14:04:00,
2013-06-28 09:09:00,61.9,60.8,27.71,NNE,14,6.0,6.0,96,0.00,,---,0.21,VWS V14.01,2013-06-28 14:09:00,
2013-06-28 09:14:00,62.0,60.8,27.71,North,5,0.0,0.0,96,0.00,,---,0.21,VWS V14.01,2013-06-28 14:14:00,
2013-06-28 09:20:00,62.3,61.2,27.72,North,11,2.0,3.0,96,0.00,,---,0.21,VWS V14.01,2013-06-28 14:20:00,
2013-06-28 09:25:00,62.6,61.5,27.72,North,9,0.0,1.0,96,0.00,,---,0.21,VWS V14.01,2013-06-28 14:25:00,
2013-06-28 09:30:00,63.1,61.9,27.72,North,5,4.0,6.0,96,0.00,,---,0.21,VWS V14.01,2013-06-28 14:30:00,
2013-06-28 09:35:00,63.1,61.3,27.72,NNE,12,1.0,2.0,94,0.00,,---,0.21,VWS V14.01,2013-06-28 14:35:00,
2013-06-28 09:40:00,63.0,61.2,27.72,NNE,15,3.0,3.0,94,0.00,,---,0.21,VWS V14.01,2013-06-28 14:40:00,
2013-06-28 09:46:00,62.8,61.0,27.72,NNE,13,4.0,4.0,94,0.00,,---,0.21,VWS V14.01,2013-06-28 14:46:00,
2013-06-28 09:51:00,62.9,61.2,27.72,NNE,23,4.0,6.0,94,0.00,,---,0.21,VWS V14.01,2013-06-28 14:51:00,
2013-06-28 09:56:00,62.7,60.7,27.72,NNW,345,1.0,3.0,93,0.00,,---,0.21,VWS V14.01,2013-06-28 14:56:00,
2013-06-28 10:01:00,62.6,60.5,27.72,North,5,2.0,2.0,93,0.00,,---,0.21,VWS V14.01,2013-06-28 15:01:00,
2013-06-28 10:06:00,62.4,60.3,27.72,NNW,335,4.0,4.0,93,0.00,,---,0.21,VWS V14.01,2013-06-28 15:06:00,
2013-06-28 10:11:00,62.2,60.2,27.72,NNW,346,3.0,4.0,93,0.00,,---,0.21,VWS V14.01,2013-06-28 15:11:00,
2013-06-28 10:16:00,62.0,60.0,27.73,NNE,12,2.0,4.0,93,0.00,,---,0.21,VWS V14.01,2013-06-28 15:16:00,
2013-06-28 10:22:00,62.0,60.0,27.73,NNW,338,1.0,4.0,93,0.00,,---,0.21,VWS V14.01,2013-06-28 15:22:00,
2013-06-28 10:27:00,62.2,60.2,27.73,NNE,16,0.0,4.0,93,0.00,,---,0.21,VWS V14.01,2013-06-28 15:27:00,
2013-06-28 10:32:00,62.3,60.2,27.73,NNE,15,0.0,3.0,93,0.00,,---,0.21,VWS V14.01,2013-06-28 15:32:00,
2013-06-28 10:37:00,62.6,60.5,27.73,North,11,3.0,4.0,93,0.00,,---,0.21,VWS V14.01,2013-06-28 15:37:00,
2013-06-28 10:42:00,62.9,60.5,27.73,NNE,22,2.0,4.0,92,0.00,,---,0.21,VWS V14.01,2013-06-28 15:42:00,
2013-06-28 10:47:00,63.2,60.5,27.73,NNE,18,0.0,1.0,91,0.00,,---,0.21,VWS V14.01,2013-06-28 15:47:00,
2013-06-28 10:53:00,63.5,60.5,27.73,North,355,2.0,5.0,90,0.00,,---,0.21,VWS V14.01,2013-06-28 15:53:00,
2013-06-28 10:58:00,63.5,60.5,27.73,North,360,0.0,1.0,90,0.00,,---,0.21,VWS V14.01,2013-06-28 15:58:00,
2013-06-28 11:03:00,63.4,60.4,27.74,ENE,67,2.0,6.0,90,0.00,,---,0.21,VWS V14.01,2013-06-28 16:03:00,
2013-06-28 11:08:00,63.0,60.3,27.74,ENE,62,0.0,4.0,91,0.00,,---,0.21,VWS V14.01,2013-06-28 16:08:00,
2013-06-28 11:13:00,62.6,59.9,27.74,North,11,0.0,4.0,91,0.00,,---,0.21,VWS V14.01,2013-06-28 16:13:00,
2013-06-28 11:18:00,62.5,60.2,27.74,NNE,21,4.0,4.0,92,0.00,,---,0.21,VWS V14.01,2013-06-28 16:18:00,
2013-06-28 11:23:00,62.4,60.0,27.74,North,5,3.0,3.0,92,0.00,,---,0.21,VWS V14.01,2013-06-28 16:23:00,
2013-06-28 11:29:00,62.6,60.5,27.74,North,5,0.0,0.0,93,0.00,,---,0.21,VWS V14.01,2013-06-28 16:29:00,
2013-06-28 11:34:00,63.1,60.7,27.74,North,355,0.0,0.0,92,0.00,,---,0.21,VWS V14.01,2013-06-28 16:34:00,
2013-06-28 11:39:00,63.7,61.3,27.74,North,355,1.0,2.0,92,0.00,,---,0.21,VWS V14.01,2013-06-28 16:39:00,
2013-06-28 11:44:00,64.1,61.4,27.74,North,360,3.0,4.0,91,0.00,,---,0.21,VWS V14.01,2013-06-28 16:44:00,
2013-06-28 11:49:00,64.5,61.5,27.75,North,5,0.0,2.0,90,0.00,,---,0.21,VWS V14.01,2013-06-28 16:49:00,
2013-06-28 11:54:00,64.9,61.6,27.75,NNW,330,2.0,3.0,89,0.00,,---,0.21,VWS V14.01,2013-06-28 16:54:00,
2013-06-28 12:00:00,65.0,61.7,27.75,NNE,19,3.0,4.0,89,0.00,,---,0.21,VWS V14.01,2013-06-28 17:00:00,
2013-06-28 12:05:00,64.9,61.3,27.75,North,5,4.0,7.0,88,0.00,,---,0.21,VWS V14.01,2013-06-28 17:05:00,
2013-06-28 12:10:00,64.8,61.2,27.75,NNW,327,4.0,5.0,88,0.00,,---,0.21,VWS V14.01,2013-06-28 17:10:00,
2013-06-28 12:15:00,64.8,61.2,27.75,North,5,2.0,6.0,88,0.00,,---,0.21,VWS V14.01,2013-06-28 17:15:00,
2013-06-28 12:21:00,64.7,61.7,27.75,NNE,28,0.0,1.0,90,0.00,,---,0.21,VWS V14.01,2013-06-28 17:21:00,
2013-06-28 12:26:00,64.4,61.1,27.75,NNE,28,2.0,3.0,89,0.01,,---,0.22,VWS V14.01,2013-06-28 17:26:00,
2013-06-28 12:31:00,64.2,61.2,27.75,NNW,342,2.0,3.0,90,0.01,,---,0.22,VWS V14.01,2013-06-28 17:31:00,
2013-06-28 12:36:00,64.8,61.8,27.75,North,360,0.0,2.0,90,0.01,,---,0.22,VWS V14.01,2013-06-28 17:36:00,
2013-06-28 12:41:00,65.6,62.0,27.75,North,351,2.0,6.0,88,0.01,,---,0.22,VWS V14.01,2013-06-28 17:41:00,
2013-06-28 12:46:00,65.8,61.8,27.76,NNW,346,5.0,6.0,87,0.01,,---,0.22,VWS V14.01,2013-06-28 17:46:00,
2013-06-28 12:51:00,65.8,61.5,27.76,NNW,329,3.0,5.0,86,0.01,,---,0.22,VWS V14.01,2013-06-28 17:51:00,
2013-06-28 12:56:00,66.0,61.4,27.76,NNW,340,1.0,6.0,85,0.01,,---,0.22,VWS V14.01,2013-06-28 17:56:00,
2013-06-28 13:02:00,66.7,62.7,27.76,NNW,348,3.0,3.0,87,0.01,,---,0.22,VWS V14.01,2013-06-28 18:02:00,
2013-06-28 13:07:00,67.1,61.8,27.76,NNW,338,7.0,7.0,83,0.01,,---,0.22,VWS V14.01,2013-06-28 18:07:00,
2013-06-28 13:12:00,67.3,62.0,27.76,NNW,344,2.0,5.0,83,0.01,,---,0.22,VWS V14.01,2013-06-28 18:12:00,
2013-06-28 13:17:00,67.4,61.4,27.76,NE,41,0.0,6.0,81,0.01,,---,0.22,VWS V14.01,2013-06-28 18:17:00,
2013-06-28 13:23:00,68.4,62.7,27.76,North,11,1.0,1.0,82,0.01,,---,0.22,VWS V14.01,2013-06-28 18:23:00,
2013-06-28 13:28:00,68.3,61.9,27.76,NNW,344,2.0,3.0,80,0.00,,---,0.22,VWS V14.01,2013-06-28 18:28:00,
2013-06-28 13:33:00,68.0,62.3,27.76,North,11,1.0,1.0,82,0.00,,---,0.22,VWS V14.01,2013-06-28 18:33:00,
2013-06-28 13:38:00,68.7,61.9,27.76,NW,317,3.0,4.0,79,0.00,,---,0.22,VWS V14.01,2013-06-28 18:38:00,
2013-06-28 13:44:00,68.8,62.7,27.76,NNW,333,1.0,1.0,81,0.00,,---,0.22,VWS V14.01,2013-06-28 18:44:00,
2013-06-28 13:49:00,68.9,61.8,27.76,NE,34,3.0,3.0,78,0.00,,---,0.22,VWS V14.01,2013-06-28 18:49:00,
2013-06-28 13:54:00,68.6,61.8,27.76,NNE,30,1.0,1.0,79,0.00,,---,0.22,VWS V14.01,2013-06-28 18:54:00,
2013-06-28 13:59:00,67.8,61.4,27.76,NNE,12,3.0,4.0,80,0.00,,---,0.22,VWS V14.01,2013-06-28 18:59:00,
2013-06-28 14:04:00,67.7,62.0,27.76,NE,37,0.0,0.0,82,0.00,,---,0.22,VWS V14.01,2013-06-28 19:04:00,
2013-06-28 14:10:00,67.7,61.3,27.76,NNE,12,1.0,3.0,80,0.00,,---,0.22,VWS V14.01,2013-06-28 19:10:00,
2013-06-28 14:15:00,68.3,61.9,27.76,NNE,12,1.0,4.0,80,0.00,,---,0.22,VWS V14.01,2013-06-28 19:15:00,
2013-06-28 14:20:00,69.7,62.9,27.76,North,351,5.0,7.0,79,0.00,,---,0.22,VWS V14.01,2013-06-28 19:20:00,
2013-06-28 14:25:00,68.7,62.6,27.76,NNE,23,4.0,7.0,81,0.06,,---,0.28,VWS V14.01,2013-06-28 19:25:00,
2013-06-28 14:30:00,65.2,61.2,27.76,ENE,65,0.0,3.0,87,0.15,,---,0.37,VWS V14.01,2013-06-28 19:30:00,
2013-06-28 14:35:00,63.9,60.3,27.77,ENE,65,1.0,2.0,88,0.15,,---,0.37,VWS V14.01,2013-06-28 19:35:00,
2013-06-28 14:41:00,63.2,60.8,27.77,ENE,65,0.0,0.0,92,0.15,,---,0.37,VWS V14.01,2013-06-28 19:41:00,
2013-06-28 14:46:00,63.2,61.5,27.77,ENE,65,0.0,0.0,94,0.15,,---,0.37,VWS V14.01,2013-06-28 19:46:00,
2013-06-28 14:51:00,64.0,62.5,27.77,ENE,65,1.0,2.0,95,0.15,,---,0.37,VWS V14.01,2013-06-28 19:51:00,
2013-06-28 14:56:00,64.2,62.4,27.77,ENE,65,0.0,1.0,94,0.15,,---,0.37,VWS V14.01,2013-06-28 19:56:00,
2013-06-28 15:01:00,64.5,62.7,27.77,ENE,64,0.0,0.0,94,0.15,,---,0.37,VWS V14.01,2013-06-28 20:01:00,
2013-06-28 15:06:00,64.5,62.7,27.77,ENE,64,0.0,0.0,94,0.15,,---,0.37,VWS V14.01,2013-06-28 20:06:00,
2013-06-28 15:12:00,64.4,62.3,27.77,ENE,64,0.0,1.0,93,0.15,,---,0.37,VWS V14.01,2013-06-28 20:12:00,
2013-06-28 15:17:00,64.9,62.8,27.77,ENE,60,1.0,2.0,93,0.15,,---,0.37,VWS V14.01,2013-06-28 20:17:00,
2013-06-28 15:22:00,66.3,64.2,27.77,ENE,60,0.0,0.0,93,0.15,,---,0.37,VWS V14.01,2013-06-28 20:22:00,
2013-06-28 15:27:00,67.0,64.0,27.77,East,99,3.0,5.0,90,0.07,,---,0.38,VWS V14.01,2013-06-28 20:27:00,
2013-06-28 15:33:00,66.5,63.2,27.77,East,98,0.0,0.0,89,0.02,,---,0.39,VWS V14.01,2013-06-28 20:33:00,
2013-06-28 15:38:00,65.9,63.5,27.77,East,98,0.0,0.0,92,0.02,,---,0.39,VWS V14.01,2013-06-28 20:38:00,
2013-06-28 15:43:00,66.6,65.1,27.77,East,90,0.0,1.0,95,0.02,,---,0.39,VWS V14.01,2013-06-28 20:43:00,
2013-06-28 15:48:00,66.7,64.6,27.77,East,90,0.0,0.0,93,0.02,,---,0.39,VWS V14.01,2013-06-28 20:48:00,
2013-06-28 15:53:00,66.5,64.1,27.77,East,90,1.0,2.0,92,0.02,,---,0.39,VWS V14.01,2013-06-28 20:53:00,
2013-06-28 15:58:00,66.2,63.5,27.77,East,90,1.0,2.0,91,0.02,,---,0.39,VWS V14.01,2013-06-28 20:58:00,
2013-06-28 16:03:00,65.8,63.1,27.77,East,90,0.0,1.0,91,0.03,,---,0.40,VWS V14.01,2013-06-28 21:03:00,
2013-06-28 16:08:00,65.6,63.2,27.77,East,90,0.0,1.0,92,0.03,,---,0.40,VWS V14.01,2013-06-28 21:08:00,
2013-06-28 16:13:00,65.6,63.2,27.77,East,90,0.0,0.0,92,0.03,,---,0.40,VWS V14.01,2013-06-28 21:13:00,
2013-06-28 16:18:00,65.6,63.2,27.78,East,90,0.0,0.0,92,0.03,,---,0.40,VWS V14.01,2013-06-28 21:18:00,
2013-06-28 16:24:00,66.1,64.3,27.78,East,90,0.0,0.0,94,0.03,,---,0.40,VWS V14.01,2013-06-28 21:24:00,
2013-06-28 16:29:00,66.5,64.1,27.78,East,91,0.0,0.0,92,0.02,,---,0.40,VWS V14.01,2013-06-28 21:29:00,
2013-06-28 16:34:00,66.5,63.8,27.78,East,87,1.0,2.0,91,0.01,,---,0.40,VWS V14.01,2013-06-28 21:34:00,
2013-06-28 16:39:00,66.1,63.4,27.78,East,80,3.0,4.0,91,0.07,,---,0.46,VWS V14.01,2013-06-28 21:39:00,
2013-06-28 17:14:00,63.1,61.3,27.79,ESE,108,2.0,3.0,94,0.09,,---,0.49,VWS V14.01,2013-06-28 22:14:00,
2013-06-28 17:19:00,63.2,61.8,27.79,East,82,1.0,2.0,95,0.09,,---,0.49,VWS V14.01,2013-06-28 22:19:00,
2013-06-28 17:25:00,63.4,62.0,27.79,East,86,2.0,2.0,95,0.09,,---,0.49,VWS V14.01,2013-06-28 22:25:00,
2013-06-28 17:30:00,62.9,61.2,27.79,ESE,116,0.0,2.0,94,0.12,,---,0.52,VWS V14.01,2013-06-28 22:30:00,
2013-06-28 17:35:00,62.5,60.8,27.80,NE,44,3.0,3.0,94,0.12,,---,0.53,VWS V14.01,2013-06-28 22:35:00,
2013-06-28 17:40:00,62.5,61.0,27.80,NE,44,0.0,0.0,95,0.07,,---,0.53,VWS V14.01,2013-06-28 22:40:00,
2013-06-28 17:46:00,62.5,61.3,27.80,NE,56,0.0,0.0,96,0.04,,---,0.53,VWS V14.01,2013-06-28 22:46:00,
2013-06-28 17:51:00,62.6,61.5,27.80,NE,56,0.0,1.0,96,0.04,,---,0.53,VWS V14.01,2013-06-28 22:51:00,
2013-06-28 17:56:00,62.7,61.5,27.80,NE,56,0.0,0.0,96,0.04,,---,0.53,VWS V14.01,2013-06-28 22:56:00,
2013-06-28 18:01:00,62.7,61.5,27.80,NE,56,0.0,0.0,96,0.04,,---,0.53,VWS V14.01,2013-06-28 23:01:00,
2013-06-28 18:06:00,62.7,61.5,27.80,NE,56,0.0,1.0,96,0.04,,---,0.53,VWS V14.01,2013-06-28 23:06:00,
2013-06-28 18:11:00,62.8,61.9,27.80,NE,56,0.0,0.0,97,0.04,,---,0.53,VWS V14.01,2013-06-28 23:11:00,
2013-06-28 18:16:00,62.9,61.8,27.80,NNW,346,0.0,1.0,96,0.04,,---,0.53,VWS V14.01,2013-06-28 23:16:00,
2013-06-28 18:21:00,63.0,61.8,27.80,North,9,3.0,5.0,96,0.04,,---,0.53,VWS V14.01,2013-06-28 23:21:00,
2013-06-28 18:27:00,63.0,61.8,27.80,NNE,15,0.0,0.0,96,0.04,,---,0.53,VWS V14.01,2013-06-28 23:27:00,
2013-06-28 18:32:00,62.9,61.5,27.80,NNE,23,1.0,2.0,95,0.01,,---,0.53,VWS V14.01,2013-06-28 23:32:00,
2013-06-28 18:37:00,63.1,61.3,27.80,North,5,4.0,4.0,94,0.00,,---,0.53,VWS V14.01,2013-06-28 23:37:00,
2013-06-28 18:42:00,63.6,61.2,27.80,NNE,13,7.0,7.0,92,0.00,,---,0.53,VWS V14.01,2013-06-28 23:42:00,
2013-06-28 18:47:00,64.2,61.8,27.80,NE,52,3.0,3.0,92,0.00,,---,0.53,VWS V14.01,2013-06-28 23:47:00,
2013-06-28 18:53:00,64.2,61.5,27.80,NE,55,5.0,5.0,91,0.00,,---,0.53,VWS V14.01,2013-06-28 23:53:00,
2013-06-28 18:58:00,63.8,60.5,27.80,NNE,12,2.0,4.0,89,0.00,,---,0.53,VWS V14.01,2013-06-28 23:58:00,
2013-06-28 19:03:00,63.4,60.1,27.81,North,9,2.0,5.0,89,0.00,,---,0.53,VWS V14.01,2013-06-29 00:03:00,
2013-06-28 19:08:00,63.1,59.8,27.81,North,10,1.0,5.0,89,0.00,,---,0.53,VWS V14.01,2013-06-29 00:08:00,
2013-06-28 19:13:00,62.9,59.6,27.81,NE,43,2.0,2.0,89,0.00,,---,0.53,VWS V14.01,2013-06-29 00:13:00,
2013-06-28 19:19:00,63.1,59.8,27.81,NNE,23,1.0,2.0,89,0.00,,---,0.53,VWS V14.01,2013-06-29 00:19:00,
2013-06-28 19:24:00,63.2,59.6,27.81,NNE,18,2.0,8.0,88,0.00,,---,0.53,VWS V14.01,2013-06-29 00:24:00,
2013-06-28 19:29:00,63.1,59.8,27.81,NNE,15,0.0,5.0,89,0.00,,---,0.53,VWS V14.01,2013-06-29 00:29:00,
2013-06-28 19:34:00,62.9,59.6,27.81,NNE,12,0.0,2.0,89,0.00,,---,0.53,VWS V14.01,2013-06-29 00:34:00,
2013-06-28 19:39:00,62.7,59.4,27.81,NNE,13,2.0,3.0,89,0.00,,---,0.53,VWS V14.01,2013-06-29 00:39:00,
2013-06-28 19:45:00,62.6,59.3,27.81,NNE,16,4.0,7.0,89,0.00,,---,0.53,VWS V14.01,2013-06-29 00:45:00,
2013-06-28 19:50:00,62.5,59.5,27.82,NNE,13,3.0,4.0,90,0.00,,---,0.53,VWS V14.01,2013-06-29 00:50:00,
2013-06-28 19:55:00,62.5,59.2,27.82,NNE,30,0.0,2.0,89,0.00,,---,0.53,VWS V14.01,2013-06-29 00:55:00,
2013-06-28 20:00:00,62.5,59.5,27.82,NNE,31,0.0,1.0,90,0.00,,---,0.53,VWS V14.01,2013-06-29 01:00:00,
2013-06-28 20:05:00,62.5,59.5,27.82,NNE,31,0.0,1.0,90,0.00,,---,0.53,VWS V14.01,2013-06-29 01:05:00,
2013-06-28 20:10:00,62.5,59.5,27.82,ENE,63,0.0,0.0,90,0.00,,---,0.53,VWS V14.01,2013-06-29 01:10:00,
2013-06-28 20:15:00,62.5,59.8,27.82,ENE,63,0.0,0.0,91,0.00,,---,0.53,VWS V14.01,2013-06-29 01:15:00,
2013-06-28 20:20:00,62.4,59.7,27.82,ENE,63,0.0,1.0,91,0.00,,---,0.53,VWS V14.01,2013-06-29 01:20:00,
2013-06-28 20:25:00,62.4,59.4,27.82,ENE,61,0.0,0.0,90,0.00,,---,0.53,VWS V14.01,2013-06-29 01:25:00,
2013-06-28 20:30:00,62.4,59.4,27.82,NE,36,0.0,0.0,90,0.00,,---,0.53,VWS V14.01,2013-06-29 01:30:00,
2013-06-28 20:36:00,62.4,59.7,27.83,NNE,16,0.0,0.0,91,0.00,,---,0.53,VWS V14.01,2013-06-29 01:36:00,
2013-06-28 20:41:00,62.2,59.5,27.83,NNE,16,3.0,3.0,91,0.00,,---,0.53,VWS V14.01,2013-06-29 01:41:00,
2013-06-28 20:46:00,62.1,59.5,27.83,NNE,16,0.0,1.0,91,0.00,,---,0.53,VWS V14.01,2013-06-29 01:46:00,
2013-06-28 20:51:00,62.0,59.3,27.83,NNE,16,0.0,1.0,91,0.00,,---,0.53,VWS V14.01,2013-06-29 01:51:00,
2013-06-28 20:56:00,61.9,59.5,27.83,NNE,16,0.0,0.0,92,0.00,,---,0.53,VWS V14.01,2013-06-29 01:56:00,
2013-06-28 21:01:00,61.8,59.8,27.83,NNE,16,0.0,0.0,93,0.00,,---,0.53,VWS V14.01,2013-06-29 02:01:00,
2013-06-28 21:06:00,61.6,59.3,27.83,NNE,16,0.0,0.0,92,0.00,,---,0.53,VWS V14.01,2013-06-29 02:06:00,
2013-06-28 21:12:00,61.4,59.4,27.83,NNE,16,0.0,0.0,93,0.00,,---,0.53,VWS V14.01,2013-06-29 02:12:00,
2013-06-28 21:17:00,61.2,59.2,27.83,NNE,16,0.0,0.0,93,0.00,,---,0.53,VWS V14.01,2013-06-29 02:17:00,
2013-06-28 21:22:00,61.1,59.1,27.83,NNE,16,0.0,0.0,93,0.00,,---,0.53,VWS V14.01,2013-06-29 02:22:00,
2013-06-28 21:27:00,61.0,59.3,27.83,NNE,16,0.0,0.0,94,0.00,,---,0.53,VWS V14.01,2013-06-29 02:27:00,
2013-06-28 21:32:00,60.8,59.1,27.84,NNE,16,0.0,0.0,94,0.00,,---,0.53,VWS V14.01,2013-06-29 02:32:00,
2013-06-28 21:38:00,60.6,58.9,27.84,NNE,16,0.0,0.0,94,0.00,,---,0.53,VWS V14.01,2013-06-29 02:38:00,
2013-06-28 21:43:00,60.5,58.8,27.84,NNE,16,0.0,0.0,94,0.00,,---,0.53,VWS V14.01,2013-06-29 02:43:00,
2013-06-28 21:48:00,60.4,58.7,27.84,NNE,16,0.0,0.0,94,0.00,,---,0.53,VWS V14.01,2013-06-29 02:48:00,
2013-06-28 21:53:00,60.3,58.9,27.84,NNE,16,0.0,0.0,95,0.00,,---,0.53,VWS V14.01,2013-06-29 02:53:00,
2013-06-28 21:58:00,60.2,58.8,27.84,NNE,16,0.0,0.0,95,0.00,,---,0.53,VWS V14.01,2013-06-29 02:58:00,
2013-06-28 22:04:00,60.0,58.6,27.84,NNE,16,0.0,0.0,95,0.00,,---,0.53,VWS V14.01,2013-06-29 03:04:00,
2013-06-28 22:09:00,60.0,58.6,27.84,NNE,16,0.0,0.0,95,0.00,,---,0.53,VWS V14.01,2013-06-29 03:09:00,
2013-06-28 22:14:00,59.9,58.5,27.84,NNE,16,0.0,0.0,95,0.00,,---,0.53,VWS V14.01,2013-06-29 03:14:00,
2013-06-28 22:19:00,59.8,58.7,27.84,NNE,16,0.0,0.0,96,0.00,,---,0.53,VWS V14.01,2013-06-29 03:19:00,
2013-06-28 22:24:00,59.7,58.6,27.84,NNE,16,0.0,0.0,96,0.00,,---,0.53,VWS V14.01,2013-06-29 03:24:00,
2013-06-28 22:29:00,59.6,58.5,27.84,NNE,16,0.0,0.0,96,0.00,,---,0.53,VWS V14.01,2013-06-29 03:29:00,
2013-06-28 22:34:00,59.4,58.3,27.84,NNE,16,0.0,0.0,96,0.00,,---,0.53,VWS V14.01,2013-06-29 03:34:00,
2013-06-28 22:39:00,59.3,58.2,27.84,NNE,16,0.0,0.0,96,0.00,,---,0.53,VWS V14.01,2013-06-29 03:39:00,
2013-06-28 22:44:00,59.1,58.0,27.84,NNE,16,0.0,0.0,96,0.00,,---,0.53,VWS V14.01,2013-06-29 03:44:00,
2013-06-28 22:50:00,59.0,57.9,27.84,NNE,16,0.0,0.0,96,0.00,,---,0.53,VWS V14.01,2013-06-29 03:50:00,
2013-06-28 22:55:00,59.0,57.9,27.84,NNE,16,3.0,3.0,96,0.00,,---,0.53,VWS V14.01,2013-06-29 03:55:00,
2013-06-28 23:00:00,59.0,57.6,27.84,NNE,16,1.0,3.0,95,0.00,,---,0.53,VWS V14.01,2013-06-29 04:00:00,
2013-06-28 23:01:00,59.0,57.6,27.84,NNE,16,2.0,2.0,95,0.00,,---,0.53,VWS V14.01,2013-06-29 04:01:00,
2013-06-28 23:02:00,59.0,57.6,27.84,NNE,16,0.0,0.0,95,0.00,,---,0.53,VWS V14.01,2013-06-29 04:02:00,
2013-06-28 23:03:00,59.0,57.6,27.84,NNE,16,0.0,0.0,95,0.00,,---,0.53,VWS V14.01,2013-06-29 04:03:00,
2013-06-28 23:08:00,59.0,57.3,27.84,NNE,16,0.0,1.0,94,0.00,,---,0.53,VWS V14.01,2013-06-29 04:08:00,
2013-06-28 23:13:00,59.1,57.1,27.84,NNE,16,0.0,0.0,93,0.00,,---,0.53,VWS V14.01,2013-06-29 04:13:00,
2013-06-28 23:18:00,59.0,57.0,27.83,NNE,16,0.0,0.0,93,0.00,,---,0.53,VWS V14.01,2013-06-29 04:18:00,
2013-06-28 23:23:00,59.0,57.0,27.83,NNE,16,0.0,0.0,93,0.00,,---,0.53,VWS V14.01,2013-06-29 04:23:00,
2013-06-28 23:28:00,59.0,57.6,27.83,NNE,16,0.0,0.0,95,0.00,,---,0.53,VWS V14.01,2013-06-29 04:28:00,
2013-06-28 23:33:00,58.7,56.7,27.83,NNE,16,0.0,0.0,93,0.00,,---,0.53,VWS V14.01,2013-06-29 04:33:00,
2013-06-28 23:38:00,58.5,56.5,27.83,NNE,16,0.0,0.0,93,0.00,,---,0.53,VWS V14.01,2013-06-29 04:38:00,
2013-06-28 23:43:00,58.3,56.3,27.83,NNE,16,0.0,0.0,93,0.00,,---,0.53,VWS V14.01,2013-06-29 04:43:00,
2013-06-28 23:49:00,58.2,56.5,27.83,NNE,16,0.0,0.0,94,0.00,,---,0.53,VWS V14.01,2013-06-29 04:49:00,
2013-06-28 23:54:00,58.2,56.5,27.83,NNE,16,0.0,0.0,94,0.00,,---,0.53,VWS V14.01,2013-06-29 04:54:00,
2013-06-28 23:59:00,58.1,56.4,27.83,NNE,16,0.0,0.0,94,0.00,,---,0.53,VWS V14.01,2013-06-29 04:59:00,